Content
SEND FEEDBACK

Daily
Averages
Monthly
Summary
United States of America

OBERLIN, LOUISIANA


Home > North America > United States > Louisiana
Elevation: 7 feet     Latitude: 30 36N     Longitude: 092 47W

WEATHER
 
SELECT A DAY
Number of Records: 96,319;   Date Range: 3/3/05 - 12/26/14
 
SHARE

PRINT THIS DATA

[ ← Previous Day ]
WEATHER ALMANAC - JANUARY 23, 2013
[ Next Day → ]
[ °C ]   °F
Weather ElementAverageHighLow
Temperature56.3 °F73.9 °F (2:54 pm)44.6 °F (7:31 am)
Dewpoint48.3 °F53.1 °F (7:54 pm)44.1 °F (3:54 am)
Humidity77.8 %100 % (7:31 am)41 % (1:54 pm)
Barometer30.34 in30.42 in (8:54 am)30.25 in (11:30 pm)
Wind Speed1.8 mph5.8 mph (11:54 am)
Weather ElementAverage
Visibility7.4 mi
Wind DirectionNNE (32.3 °)

Weather ElementTotal
Precipitation---
Heating Degree Days5.8 (Base 65)
Growing Degree Days9.3 (Base 50)
Averaged from 31 records on January 23, 2013
WEATHER CONDITIONS BREAKOUT
WIND DIRECTION BREAKOUT
WEATHER BY HOUR - JANUARY 23, 2013
[ °C ]   °F
Local TimeTemperatureDewpointHumidityBarometerVisibilityWind DirectionWind SpeedGust SpeedPrecipitationEventsConditions
1:54 AM48.0 °F45.0 °F89 %30.37 in9.0 miCalmClear
2:54 AM46.9 °F45.0 °F93 %30.37 in5.0 miCalmClear
3:54 AM46.9 °F44.1 °F90 %30.36 in10.0 miCalmClear
4:54 AM46.9 °F44.1 °F90 %30.37 in8.0 miCalmClear
5:49 AM46.4 °F44.6 °F93 %30.30 in1.8 miCalmClear
5:54 AM46.9 °F45.0 °F93 %30.39 in0.8 miCalmMist
6:33 AM46.4 °F44.6 °F93 %30.31 in1.0 miCalmClear
6:50 AM46.4 °F44.6 °F93 %30.31 in0.5 miCalmFogFog
6:54 AM46.0 °F44.1 °F93 %30.40 in0.8 miCalmMist
7:31 AM44.6 °F44.6 °F100 %30.31 in0.5 miCalmFogFog
7:42 AM44.6 °F44.6 °F100 %30.32 in2.0 miCalmClear
7:51 AM46.4 °F44.6 °F93 %30.32 in5.0 miCalmClear
7:54 AM46.9 °F45.0 °F93 %30.41 in6.0 miCalmClear
8:54 AM55.9 °F51.1 °F84 %30.42 in10.0 miVariable4.6 mphClear
9:54 AM61.0 °F52.0 °F72 %30.42 in10.0 miVariable4.6 mphClear
10:54 AM66.0 °F52.0 °F60 %30.42 in10.0 miVariable4.6 mphClear
11:54 AM71.1 °F52.0 °F51 %30.39 in10.0 miVariable5.8 mphClear
12:54 PM72.0 °F48.9 °F44 %30.36 in10.0 miVariable4.6 mphClear
1:54 PM73.0 °F48.0 °F41 %30.33 in10.0 miVariable5.8 mphClear
2:54 PM73.9 °F48.9 °F41 %30.32 in10.0 miSSW (210°)5.8 mphClear
3:54 PM73.0 °F48.0 °F41 %30.32 in10.0 miSSW (200°)3.5 mphScattered Clouds
4:54 PM69.1 °F48.9 °F49 %30.32 in10.0 miSSW (210°)3.5 mphPartly Cloudy
5:54 PM66.0 °F51.1 °F59 %30.31 in10.0 miSouth (190°)3.5 mphClear
6:54 PM63.0 °F52.0 °F67 %30.32 in10.0 miVariable3.5 mphClear
7:54 PM62.1 °F53.1 °F72 %30.31 in10.0 miSouth (190°)4.6 mphClear
8:54 PM59.0 °F52.0 °F78 %30.33 in10.0 miCalmClear
9:54 PM55.0 °F52.0 °F89 %30.34 in10.0 miCalmClear
10:54 PM55.9 °F52.0 °F87 %30.33 in10.0 miCalmClear
11:30 PM55.4 °F51.8 °F88 %30.25 in10.0 miCalmMostly Cloudy
11:42 PM55.4 °F51.8 °F88 %30.25 in10.0 miCalmScattered Clouds
11:54 PM55.0 °F52.0 °F89 %30.33 in10.0 miCalmPartly Cloudy
Hourly data recorded from KBKB, located miles away from Oberlin, Louisiana







STORIES FROM OUR PARTNERS